DW3478 Weather Reports


Display with metric or nautical units.
time (UTC)temp
F
wind
direction
speed
MPH
gust
MPH
rain 1hr
in
rain 24hr
in
rain mn
in
humidity
%
barometer
mb
20260508084805 55 294 2.0 5.0 0.03 0.14 0.14 93 1005.0
20260508083305 55 302 2.0 9.0 0.03 0.14 0.14 93 1004.3
20260508082306 55 309 2.0 5.0 0.03 0.14 0.14 92 1004.5
20260508081806 55 276 3.0 13.0 0.03 0.14 0.14 92 1004.8
20260508081306 55 315 3.0 10.0 0.03 0.14 0.14 92 1004.9
20260508071805 56 309 7.0 17.0 0.00 0.11 0.11 93 1004.4
20260508065805 55 308 3.0 9.0 0.00 0.11 0.11 94 1004.5
20260508064305 55 307 2.0 5.0 0.00 0.11 0.11 94 1004.4
20260508063805 55 304 2.0 10.0 0.00 0.11 0.11 94 1004.4
20260508060804 54 286 3.0 12.0 0.00 0.11 0.11 95 1004.5
20260508060304 54 274 2.0 10.0 0.00 0.11 0.11 95 1004.3
20260508055805 54 260 3.0 7.0 0.00 0.11 0.11 95 1004.3
20260508053804 54 319 3.0 7.0 0.00 0.11 0.11 95 1004.4
20260508053305 55 280 2.0 7.0 0.01 0.11 0.11 95 1004.1
20260508052805 55 303 2.0 7.0 0.02 0.11 0.11 95 1004.3
20260508052307 55 299 1.0 6.0 0.02 0.11 0.11 95 1004.3
20260508045307 57 218 2.0 3.0 0.02 0.11 0.11 95 1003.6
20260508044805 57 275 3.0 5.0 0.02 0.11 0.11 95 1003.8
20260508044305 57 292 3.0 12.0 0.04 0.11 0.11 95 1003.5
20260508043804 56 289 2.0 5.0 0.08 0.11 0.11 95 1003.4
20260508043305 56 234 1.0 7.0 0.09 0.10 0.10 95 1003.2
20260508042307 56 297 2.0 10.0 0.08 0.09 0.09 95 1003.0
20260508041805 56 300 1.0 3.0 0.08 0.09 0.09 95 1003.1
20260508040305 56 296 2.0 5.0 0.08 0.09 0.09 95 1004.5
20260508033305 57 283 4.0 10.0 0.00 0.01 0.01 94 1004.1
20260508032805 58 268 7.0 23.0 0.00 0.01 0.01 94 1003.9
20260508031805 58 268 7.0 16.0 0.00 0.01 0.01 94 1004.2
20260508031306 58 225 10.0 24.0 0.00 0.01 0.01 94 1003.6
20260508025306 57 254 9.0 15.0 0.00 0.01 0.01 94 1005.1
20260508024805 57 229 7.0 14.0 0.00 0.01 0.01 94 1005.1
20260508024306 57 249 10.0 15.0 0.00 0.01 0.01 94 1005.1
20260508022805 57 233 6.0 15.0 0.00 0.01 0.01 93 1005.6
20260508022307 57 256 8.0 15.0 0.00 0.01 0.01 93 1005.7
20260508021305 57 227 9.0 17.0 0.00 0.01 0.01 93 1005.8
20260508020805 57 252 8.0 16.0 0.00 0.01 0.01 93 1005.9
20260508020305 57 240 9.0 13.0 0.00 0.01 0.01 93 1005.9
20260508014805 57 269 7.0 13.0 0.00 0.01 0.01 91 1006.0
20260508014304 57 265 9.0 16.0 0.00 0.01 0.01 91 1006.5
20260508013805 57 254 11.0 21.0 0.00 0.01 0.01 90 1006.7
20260508010305 58 275 7.0 12.0 0.00 0.01 0.01 87 1006.7
20260508005805 58 269 9.0 16.0 0.00 0.01 0.01 87 1006.9
20260508005306 58 257 5.0 13.0 0.00 0.01 0.01 87 1006.8
20260508004304 58 258 5.0 13.0 0.01 0.01 0.01 87 1006.6
20260508003805 58 207 7.0 13.0 0.01 0.01 0.01 86 1007.1
20260508002804 58 262 6.0 15.0 0.01 0.01 0.01 87 1007.3
20260508002306 58 218 7.0 15.0 0.01 0.01 0.01 87 1007.3
20260508001805 58 270 6.0 18.0 0.01 0.01 0.01 87 1007.0
20260508001304 58 278 6.0 12.0 0.01 0.01 0.01 86 1007.4
20260508000805 58 272 5.0 15.0 0.01 0.01 0.01 86 1007.6
20260508000305 58 271 8.0 13.0 0.01 0.01 0.01 87 1007.6
20260507235805 58 254 5.0 12.0 0.01 0.01 0.01 86 1007.4
20260507235307 58 222 11.0 16.0 0.01 0.01 0.01 86 1007.4
20260507234804 58 208 7.0 14.0 0.00 0.00 0.00 84 1007.6
20260507233805 58 241 7.0 12.0 0.00 0.00 0.00 85 1007.4
20260507233305 58 203 4.0 10.0 0.00 0.00 0.00 84 1007.4
20260507232306 58 221 10.0 10.0 0.00 0.00 0.00 85 1007.7
20260507231805 58 226 5.0 10.0 0.00 0.00 0.00 85 1007.9
20260507231304 58 224 4.0 9.0 0.00 0.00 0.00 84 1007.8
20260507230805 58 226 4.0 9.0 0.00 0.00 0.00 84 1008.0
20260507224804 58 162 4.0 6.0 0.00 0.00 0.00 81 1008.1
20260507224305 58 155 3.0 8.0 0.00 0.00 0.00 80 1007.6
20260507222804 58 136 2.0 3.0 0.00 0.00 0.00 80 1008.1
20260507222306 58 148 2.0 3.0 0.00 0.00 0.00 80 1007.9
20260507221304 58 195 3.0 5.0 0.00 0.00 0.00 79 1008.5
20260507220805 58 199 1.0 3.0 0.00 0.00 0.00 78 1008.5
20260507220304 58 197 3.0 5.0 0.00 0.00 0.00 78 1008.6
20260507215306 59 188 1.0 3.0 0.00 0.00 0.00 78 1008.6
20260507214805 59 222 2.0 3.0 0.00 0.00 0.00 77 1008.6
20260507212307 58 144 2.0 3.0 0.00 0.00 0.00 75 1008.6
20260507211804 58 195 1.0 3.0 0.00 0.00 0.00 75 1008.7
20260507211305 58 195 3.0 3.0 0.00 0.00 0.00 75 1008.7
20260507204804 58 233 2.0 3.0 0.00 0.00 0.00 72 1008.8
20260507204304 58 222 3.0 3.0 0.00 0.00 0.00 71 1008.9
20260507203804 58 255 3.0 5.0 0.00 0.00 0.00 71 1008.8
20260507203305 58 274 3.0 5.0 0.00 0.00 0.00 71 1008.9
20260507200804 58 259 2.0 3.0 0.00 0.00 0.00 69 1008.8
20260507200305 59 218 2.0 3.0 0.00 0.00 0.00 69 1008.8
20260507194804 59 220 2.0 3.0 0.00 0.00 0.00 68 1008.7
20260507194305 59 245 2.0 3.0 0.00 0.00 0.00 68 1008.8
20260507193805 59 239 2.0 3.0 0.00 0.00 0.00 67 1008.8
20260507191804 60 250 3.0 5.0 0.00 0.00 0.00 66 1008.8
20260507191304 60 250 4.0 7.0 0.00 0.00 0.00 67 1008.8
20260507190805 60 260 2.0 5.0 0.00 0.00 0.00 64 1008.8
20260507185306 61 230 3.0 5.0 0.00 0.00 0.00 65 1008.8
20260507184805 61 279 5.0 7.0 0.00 0.00 0.00 64 1008.8
20260507183304 61 286 5.0 8.0 0.00 0.00 0.00 66 1008.9
20260507182805 60 291 4.0 6.0 0.00 0.00 0.00 68 1008.9
20260507182307 61 277 4.0 9.0 0.00 0.00 0.00 67 1008.9
20260507180805 61 280 3.0 7.0 0.00 0.00 0.00 69 1009.0
20260507180304 61 276 5.0 10.0 0.00 0.00 0.00 67 1009.0
20260507175805 60 315 6.0 8.0 0.00 0.00 0.00 67 1008.9
20260507174804 60 290 4.0 9.0 0.00 0.00 0.00 67 1008.9
20260507174305 61 294 4.0 9.0 0.00 0.00 0.00 69 1009.0
20260507173804 61 231 2.0 6.0 0.00 0.00 0.00 69 1009.0
20260507173304 61 281 5.0 7.0 0.00 0.00 0.00 67 1009.0
20260507172804 62 282 5.0 10.0 0.00 0.00 0.00 66 1009.0
20260507170804 62 271 5.0 9.0 0.00 0.00 0.00 66 1009.0
20260507170305 62 258 5.0 8.0 0.00 0.00 0.00 66 1008.9
20260507165805 63 286 5.0 10.0 0.00 0.00 0.00 63 1008.6
20260507165306 63 286 5.0 7.0 0.00 0.00 0.00 64 1009.0
20260507164805 63 286 7.0 9.0 0.00 0.00 0.00 63 1009.1
20260507161804 62 247 4.0 7.0 0.00 0.00 0.00 65 1009.2
20260507161305 62 243 6.0 9.0 0.00 0.00 0.00 64 1009.3
20260507155306 64 274 4.0 7.0 0.00 0.00 0.00 66 1009.3
20260507154805 63 270 7.0 12.0 0.00 0.00 0.00 66 1009.4
20260507154305 63 302 6.0 10.0 0.00 0.00 0.00 65 1009.3
20260507153304 61 229 6.0 9.0 0.00 0.00 0.00 67 1009.1
20260507152805 61 226 6.0 10.0 0.00 0.00 0.00 67 1009.0
20260507152306 61 205 5.0 7.0 0.00 0.00 0.00 66 1009.0
20260507151805 61 189 3.0 5.0 0.00 0.00 0.00 68 1008.9
20260507144306 60 117 3.0 6.0 0.00 0.00 0.00 67 1009.0
20260507143805 59 118 4.0 6.0 0.00 0.00 0.00 68 1009.2
20260507143306 59 182 2.0 5.0 0.00 0.00 0.00 68 1009.6
20260507140805 60 295 3.0 7.0 0.00 0.00 0.00 63 1010.3
20260507140306 60 311 3.0 7.0 0.00 0.00 0.00 62 1010.2
20260507132307 60 285 2.0 3.0 0.00 0.00 0.00 62 1010.6
20260507130805 61 297 2.0 3.0 0.00 0.00 0.00 62 1010.8
20260507130305 61 287 2.0 5.0 0.00 0.00 0.00 62 1010.9
20260507125806 61 294 1.0 2.0 0.00 0.00 0.00 65 1011.1
20260507124305 62 286 2.0 3.0 0.00 0.00 0.00 56 1011.4
20260507122805 62 292 4.0 7.0 0.00 0.00 0.00 57 1011.3
20260507120805 62 287 2.0 6.0 0.00 0.00 0.00 57 1011.6
20260507120306 62 302 5.0 10.0 0.00 0.00 0.00 56 1011.5
20260507115805 62 282 4.0 6.0 0.00 0.00 0.00 58 1011.5
20260507115307 62 296 6.0 12.0 0.00 0.00 0.00 57 1011.6
20260507114805 63 273 4.0 10.0 0.00 0.00 0.00 56 1011.4
20260507113805 64 285 2.0 5.0 0.00 0.00 0.00 58 1011.5
20260507111305 65 306 4.0 12.0 0.00 0.00 0.00 60 1011.5
20260507110805 65 293 2.0 9.0 0.00 0.00 0.00 59 1011.4
20260507105307 64 286 3.0 7.0 0.00 0.00 0.00 60 1011.1
20260507104805 64 290 3.0 13.0 0.00 0.00 0.00 63 1011.4
20260507104306 63 291 3.0 10.0 0.00 0.00 0.00 64 1011.3
20260507101306 63 288 4.0 7.0 0.00 0.00 0.00 64 1011.3
20260507093305 60 259 1.0 3.0 0.00 0.00 0.00 67 1011.2
20260507092806 61 274 3.0 5.0 0.00 0.00 0.00 67 1011.2